Theta_e
303 304 304 304 304 304 304 304 304 304 305 306 307 308 309 308 307 307 307 307 308 313 314 314 315 317 315 316 319 320 320 321 328 328 329 328 328 327 328 328 331 330 333 332 330 332 333 332 335 342 342 340 338 336
304 303 304 304 304 304 304 304 304 304 304 305 306 308 309 308 307 307 306 306 306 307 310 309 312 313 314 315 317 315 319 320 326 330 327 324 327 326 330 327 327 334 332 340 336 337 332 330 332 333 335 338 338 338
305 304 304 303 303 303 304 304 304 304 304 304 305 306 308 308 307 307 306 306 306 309 310 311 316 315 312 311 313 315 316 317 320 320 325 326 332 325 329 327 330 330 332 337 336 332 330 330 330 331 332 332 332 332
306 306 306 306 305 305 305 304 304 304 304 304 305 306 308 308 308 306 307 306 305 307 315 317 315 317 316 316 313 312 312 313 316 318 322 324 325 320 325 325 326 328 333 336 334 330 328 328 329 329 328 328 329 331
307 308 307 305 304 304 304 304 304 304 304 305 305 307 308 308 307 307 306 305 305 310 320 321 316 316 316 316 316 314 313 314 317 321 322 325 322 322 323 324 326 326 333 335 335 333 332 331 328 328 330 330 331 333
305 306 307 307 306 305 305 304 304 305 305 306 307 309 308 308 308 308 312 308 306 305 313 321 317 318 318 317 316 316 316 316 318 321 323 322 320 326 328 329 329 324 325 329 331 328 328 328 328 329 330 331 333 334
304 304 305 307 308 307 306 306 307 307 307 308 309 308 310 311 308 309 313 312 310 306 316 320 318 319 318 316 317 317 315 319 321 323 323 324 324 324 326 325 325 327 327 328 325 327 329 329 330 330 330 332 331 332
303 303 304 306 307 308 307 307 308 308 308 309 308 309 311 311 309 311 313 309 308 310 314 319 320 323 318 321 323 318 320 321 322 325 323 325 323 324 326 327 326 327 327 327 326 326 329 329 327 329 331 333 332 331
304 303 304 305 306 307 307 308 308 309 309 309 309 311 310 309 314 312 312 310 309 311 320 321 326 329 321 322 323 323 321 326 321 326 325 325 326 329 328 328 328 327 329 328 326 325 327 328 328 330 331 332 331 329
304 303 304 305 306 306 307 308 308 309 310 309 309 311 319 311 311 312 312 314 312 316 317 321 317 320 317 319 327 328 325 328 329 327 322 326 327 326 325 323 324 327 327 326 328 329 328 328 329 330 331 330 330 328
304 304 306 306 306 306 307 307 307 307 309 308 309 311 308 310 312 315 319 320 321 322 320 320 318 319 318 322 323 326 329 329 331 328 328 329 329 328 326 326 325 325 326 326 326 327 327 327 328 329 328 327 327 327
307 307 305 306 306 306 306 307 307 306 306 306 307 306 308 312 315 319 322 322 324 328 324 324 325 322 323 320 327 326 332 328 331 325 332 332 331 328 325 324 324 325 324 324 323 325 324 324 324 326 327 326 326 326
306 305 305 306 306 306 307 308 307 306 306 307 307 312 315 317 317 320 324 325 326 324 326 327 329 327 327 324 325 328 331 330 325 330 330 332 331 326 326 325 325 324 324 324 324 323 324 324 323 324 325 326 326 325
305 305 306 306 307 307 308 307 307 307 306 310 315 316 320 322 321 320 322 322 323 326 328 326 329 330 329 327 329 331 327 329 330 331 330 331 329 326 326 326 326 325 324 323 323 324 324 324 324 324 324 324 324 325
305 306 306 307 307 307 306 306 307 307 308 312 316 319 320 319 318 320 318 321 324 322 323 325 324 326 329 328 329 329 330 331 329 330 330 330 326 327 328 326 324 324 324 325 325 325 325 324 324 324 323 323 323 323
305 305 306 306 305 305 305 306 306 308 309 313 314 317 317 319 320 317 318 317 320 322 323 325 326 326 327 328 330 329 330 329 330 331 329 327 328 328 326 324 324 325 325 324 323 322 323 323 323 323 322 322 322 322
305 305 305 304 304 304 304 305 306 309 312 313 316 314 315 316 317 317 316 317 320 324 326 326 325 325 324 327 328 328 329 330 329 329 329 329 328 326 324 324 325 322 322 321 319 319 319 318 318 320 322 321 321 321
304 304 304 304 303 303 304 306 307 310 312 314 315 315 314 315 316 316 315 316 317 321 324 324 323 325 327 326 326 327 327 327 326 328 328 326 323 326 323 324 322 320 320 319 318 318 318 319 319 320 317 319 320 321
303 304 303 303 303 304 305 306 308 312 312 313 314 312 313 314 314 314 314 314 314 316 321 323 324 326 325 325 326 326 327 326 327 326 327 325 323 325 324 323 320 319 319 319 319 318 317 317 318 319 319 320 320 321
304 303 304 304 304 305 306 307 307 309 312 313 311 312 312 313 312 312 312 313 313 319 319 320 320 321 323 326 324 325 324 323 325 324 327 326 325 324 323 323 321 318 318 318 319 317 319 321 320 321 323 323 323 323
303 304 305 305 304 304 305 306 307 309 310 311 311 310 312 311 312 313 313 313 316 318 317 317 318 319 321 321 322 321 323 322 324 325 326 324 324 323 321 322 322 320 320 320 320 318 319 322 320 320 320 320 321 322
304 304 305 305 305 305 305 304 305 306 307 309 310 310 312 313 314 314 313 316 316 316 316 317 318 318 321 322 321 321 321 321 320 320 319 320 323 324 323 321 321 323 322 322 320 321 321 320 320 320 317 318 318 320
303 304 305 305 306 305 306 306 309 309 312 312 313 314 315 315 316 314 318 318 318 316 316 316 318 318 319 318 319 321 320 320 321 321 320 321 321 321 321 321 320 322 323 322 321 320 320 320 319 319 319 319 321 321
304 304 307 307 306 307 307 309 308 310 311 313 313 314 315 317 317 320 322 323 320 320 321 321 321 319 317 318 319 319 320 320 320 320 319 320 321 322 321 321 321 321 322 323 322 321 320 319 318 319 320 321 320 320
304 305 305 305 308 308 309 310 311 312 313 313 314 315 316 317 319 321 322 322 321 321 319 319 322 320 319 320 319 319 319 319 320 319 319 320 320 319 319 319 319 319 320 321 322 322 321 319 319 320 321 321 319 319
305 306 305 308 309 309 310 312 312 313 313 314 314 315 317 319 320 322 320 320 320 320 318 319 319 320 322 322 322 321 320 319 319 319 320 319 319 320 322 322 322 321 319 319 321 321 322 321 320 320 320 320 320 319
306 306 306 306 307 308 309 311 311 312 313 313 314 316 318 320 321 318 319 320 318 315 314 315 315 318 318 319 320 322 320 320 320 320 320 320 320 320 320 321 322 321 319 319 319 320 321 321 321 320 320 320 320 320
304 305 307 308 308 308 309 310 311 313 313 312 314 315 320 318 321 321 319 315 313 311 311 312 314 314 315 317 319 319 321 320 320 319 319 319 320 320 320 320 320 320 319 320 319 320 320 321 322 321 321 321 321 321
304 305 306 306 306 306 308 309 310 311 312 315 314 313 313 314 316 315 312 310 310 310 310 311 312 315 317 319 318 319 320 320 320 321 323 324 324 322 320 320 321 320 320 320 320 320 321 320 321 321 321 321 321 321
305 304 305 305 305 307 307 309 311 312 311 311 311 311 311 311 310 310 310 310 310 311 311 311 312 313 317 321 322 322 321 321 320 322 324 324 322 321 321 321 321 321 320 320 320 320 319 318 318 318 319 320 320 320
305 306 305 306 307 308 307 306 307 307 308 309 309 310 310 310 309 310 311 312 315 313 312 313 313 315 318 322 323 324 323 320 320 320 321 321 320 321 321 321 321 320 319 320 320 320 320 320 320 320 320 320 321 320
305 305 306 308 309 309 310 309 309 310 311 312 312 310 310 311 313 314 314 320 320 316 315 313 314 316 319 320 322 321 320 321 321 321 321 321 320 320 321 321 320 319 320 321 321 321 321 321 321 321 321 321 321 321
307 308 308 309 311 312 313 312 313 314 314 315 315 312 312 314 317 318 319 321 320 321 321 321 318 316 316 315 318 321 320 321 320 320 319 319 320 320 319 320 320 321 321 321 321 321 321 321 321 320 320 320 321 321
Wind_Speed
20 19 20 21 21 23 23 24 23 23 23 22 21 18 17 16 15 13 7 5 2 3 8 8 5 5 3 2 3 4 3 2 0 2 3 3 4 4 3 2 4 7 5 5 3 6 13 3 8 9 2 11 13 10
21 20 20 21 22 23 23 24 24 24 23 23 21 20 18 15 13 10 3 3 5 5 5 6 12 17 17 12 2 1 3 2 1 1 1 2 3 3 3 5 2 4 4 2 6 2 4 5 6 4 6 10 8 8
21 21 22 23 23 23 24 25 26 25 24 22 22 20 19 17 12 7 7 7 4 3 6 4 4 4 15 29 20 3 2 1 1 2 1 1 2 3 4 5 4 4 3 3 4 4 0 3 4 3 5 6 5 4
21 22 23 24 24 24 24 25 26 26 25 24 23 22 20 19 15 9 7 6 4 3 3 3 4 4 6 9 23 29 1 2 2 1 0 1 2 2 1 1 3 1 8 7 2 3 2 5 6 8 5 4 3 3
21 23 24 24 24 24 25 26 26 26 26 25 24 24 23 20 15 12 14 14 13 3 3 6 17 3 5 8 12 21 19 4 2 2 1 2 1 2 1 2 3 5 5 6 6 12 8 12 11 8 7 4 2 3
22 23 24 25 25 26 26 27 27 27 27 27 27 27 25 19 11 5 2 4 13 9 2 4 5 3 3 3 9 12 10 5 3 2 2 2 1 2 3 3 5 7 6 6 1 8 5 9 10 8 6 5 4 4
22 24 25 25 26 27 27 28 28 28 27 28 29 28 21 16 10 4 1 1 10 9 2 4 5 1 3 3 3 3 8 3 3 2 3 3 3 3 3 12 7 5 8 9 4 10 5 9 7 9 5 5 6 6
23 24 25 26 26 27 27 28 28 29 30 29 28 19 12 3 5 2 2 7 12 2 2 3 4 3 4 0 2 2 4 3 4 2 1 3 3 2 5 6 11 4 4 5 12 5 5 8 4 7 5 5 4 2
23 24 25 26 26 26 27 27 29 30 29 27 19 6 1 1 2 2 5 5 11 2 2 1 2 1 4 1 0 2 1 3 2 3 3 4 4 5 8 8 8 10 10 11 11 2 8 8 7 6 6 5 4 2
24 23 23 25 25 25 25 25 27 26 26 16 5 2 1 1 6 6 3 3 3 3 2 3 1 3 3 2 1 2 1 2 3 2 3 4 5 10 10 7 5 7 9 13 10 6 4 5 6 7 8 6 4 2
22 22 24 24 23 24 23 22 21 24 10 8 6 2 8 9 3 2 2 3 2 3 4 3 4 3 1 2 2 1 0 1 3 3 3 3 3 4 3 6 5 9 8 9 0 3 5 2 6 7 7 6 5 4
21 22 22 22 22 22 21 19 15 15 10 12 14 11 6 2 1 2 2 1 4 3 4 3 2 3 1 1 2 1 2 1 3 1 3 3 3 2 2 2 5 8 10 7 4 3 1 3 4 4 5 5 5 3
20 20 20 20 20 20 18 9 11 17 18 2 2 3 2 1 1 4 4 3 2 2 3 3 2 1 2 2 2 2 3 2 1 3 3 2 4 3 4 5 8 7 7 5 4 4 3 2 0 4 5 4 4 3
19 19 18 19 15 10 13 14 15 18 4 2 2 3 3 3 4 3 2 2 1 2 1 1 1 1 1 2 1 3 0 2 2 2 2 3 5 5 5 5 5 5 4 4 4 4 4 3 2 1 3 3 4 4
17 18 17 5 10 14 18 18 16 9 2 2 2 3 4 3 3 1 2 1 0 1 1 1 2 2 1 2 1 2 2 3 3 1 3 5 2 5 5 4 3 3 2 2 3 3 4 5 4 4 2 3 4 4
16 15 2 8 16 18 18 17 6 2 2 2 4 3 3 2 2 1 1 2 3 1 1 2 1 1 1 2 2 5 2 2 1 2 1 2 3 4 4 3 4 3 2 3 3 4 4 5 4 4 3 2 3 3
12 5 10 16 17 19 17 4 2 3 3 3 3 3 4 4 4 3 1 2 2 1 1 1 2 3 2 2 3 3 2 2 3 1 3 3 2 5 3 3 2 3 4 3 2 4 4 4 4 4 3 2 2 2
8 13 14 15 15 14 3 2 2 3 5 4 4 2 2 3 3 3 2 1 2 1 1 2 1 3 3 4 3 2 1 1 1 1 3 3 4 4 2 4 3 3 3 2 0 1 3 5 5 4 3 2 1 1
15 16 15 11 7 4 2 2 3 3 4 2 2 3 3 4 5 6 6 6 4 3 3 2 5 4 6 3 3 3 3 3 2 1 2 4 4 8 4 4 4 5 4 2 1 2 3 3 4 3 1 3 4 7
13 11 7 5 5 2 2 2 3 3 3 2 2 3 3 5 5 4 5 4 4 3 5 5 6 5 3 3 4 3 3 3 2 2 2 4 6 5 8 8 8 7 4 2 0 1 2 3 2 3 6 8 12 11
6 2 5 0 4 4 2 2 3 2 4 3 4 3 4 2 4 4 4 5 4 3 5 8 8 8 7 5 5 6 4 5 4 4 3 2 2 6 7 9 7 6 4 3 1 4 4 5 4 3 4 5 5 7
3 6 2 2 2 2 2 4 3 4 3 4 4 3 4 3 3 3 2 4 4 6 7 9 9 10 9 9 7 12 12 8 9 6 4 4 3 2 4 9 9 6 6 5 5 5 8 7 7 4 2 3 2 3
6 3 3 4 2 2 2 3 3 2 3 2 3 3 3 3 3 3 3 3 3 2 3 4 10 16 13 19 15 11 10 11 4 6 3 6 5 6 7 8 9 8 6 8 9 9 9 9 7 6 6 5 5 4
3 2 2 2 3 2 2 2 3 3 3 3 2 4 3 2 1 2 3 2 1 2 1 5 4 5 6 8 9 10 14 11 10 7 6 6 6 7 8 6 7 10 10 7 11 11 11 11 10 9 8 7 6 5
2 2 2 3 2 3 3 3 3 3 2 2 3 3 2 2 2 2 2 3 2 4 6 5 6 2 3 4 5 10 13 13 6 3 14 15 9 4 5 7 8 8 9 12 14 13 12 12 11 11 10 9 8 7
3 4 4 2 2 3 3 3 2 2 3 3 4 3 2 2 2 3 1 1 2 1 5 5 4 5 4 3 4 4 7 13 16 10 14 10 10 9 5 4 4 7 12 15 12 15 15 14 13 13 13 13 14 11
3 2 4 3 2 1 3 3 4 4 4 3 2 2 2 3 3 2 2 1 2 9 16 12 9 7 5 7 6 4 5 9 15 14 12 10 7 10 12 9 8 10 6 10 12 14 16 17 16 16 15 13 13 14
3 2 3 1 1 2 4 3 3 4 3 2 1 2 3 2 2 0 2 5 9 18 17 16 15 14 13 12 8 6 5 6 6 7 8 12 14 12 15 16 16 16 13 8 7 9 10 12 15 16 16 16 16 15
3 3 2 6 4 3 4 5 5 3 2 2 3 4 3 3 4 5 16 20 18 21 18 17 17 12 11 5 9 9 9 10 10 10 12 9 7 14 17 17 15 13 13 12 14 15 14 13 13 13 14 14 12 9
3 5 3 3 4 5 5 6 5 5 3 4 4 7 10 11 21 24 25 23 16 14 19 14 13 11 6 5 5 6 9 13 13 10 7 8 11 14 13 14 11 9 9 9 8 7 12 14 15 13 11 11 10 11
1 3 3 4 4 5 8 8 7 7 6 8 9 11 12 7 10 7 7 10 13 11 11 10 10 8 4 4 4 2 2 3 7 10 12 11 10 9 10 9 8 7 7 6 6 6 7 8 9 10 9 9 9 8
4 6 3 3 4 5 7 3 2 2 2 2 1 2 1 3 3 2 3 13 10 3 3 5 6 6 5 5 4 6 6 3 2 4 6 7 7 10 11 10 10 8 6 6 6 5 5 6 6 8 9 9 9 11
3 5 5 3 3 4 3 2 2 2 2 2 2 2 2 2 3 2 4 12 10 9 11 8 6 5 6 7 5 5 4 4 3 4 6 7 8 8 11 10 11 11 10 8 8 7 7 8 9 10 13 13 13 12
Wind_Direction
337 335 335 337 340 343 346 345 347 347 344 341 341 339 342 344 347 348 291 242 260 267 271 218 233 236 240 252 281 6 251 158 286 166 195 169 205 182 188 189 200 230 221 234 212 244 254 152 132 204 85 131 138 143
337 334 332 332 333 334 336 338 339 341 340 338 339 336 334 336 340 336 296 243 248 244 274 257 247 248 241 240 312 330 335 282 358 71 211 139 172 176 186 233 139 209 234 224 224 263 348 293 293 127 142 135 147 164
338 338 335 332 330 331 331 332 332 333 335 336 335 334 331 329 329 309 282 284 270 272 279 276 239 266 234 229 224 237 231 288 157 347 112 63 232 166 191 219 174 196 171 203 193 181 17 92 110 124 137 129 167 212
336 336 335 335 332 331 329 329 329 330 330 332 332 331 328 322 315 295 258 260 248 288 287 283 326 290 269 228 207 214 336 104 64 302 269 251 260 207 246 352 243 128 165 166 218 232 194 228 211 185 182 163 134 89
334 336 337 337 337 335 334 331 329 328 327 328 328 329 324 319 313 289 269 247 229 276 300 295 311 292 296 196 195 199 213 257 340 309 248 248 165 206 175 259 237 191 171 193 219 188 195 189 185 185 188 181 163 137
331 333 336 336 336 336 336 333 330 328 327 327 327 326 322 314 306 298 255 224 210 194 275 305 335 275 338 161 174 184 192 198 226 230 234 235 229 252 237 241 260 215 221 233 294 191 190 164 170 181 190 169 132 140
327 328 330 333 335 335 335 333 333 330 329 329 327 323 316 302 225 209 329 336 182 178 259 295 308 290 310 128 140 139 174 177 211 205 219 237 200 211 262 254 273 248 236 231 222 149 135 176 188 184 178 137 125 105
322 324 326 329 331 333 333 332 332 331 331 330 326 320 326 105 185 198 14 237 172 238 244 290 285 298 7 206 161 161 149 183 193 249 178 218 149 221 248 244 246 238 206 205 184 214 230 170 156 170 158 150 149 121
319 321 323 326 328 328 329 330 331 329 333 331 325 325 289 93 127 87 354 182 184 288 292 253 282 337 353 47 152 138 217 190 109 231 217 179 185 219 225 233 234 211 197 185 174 157 155 171 184 180 189 187 206 212
319 321 322 323 325 325 326 329 332 330 336 334 347 294 181 96 329 138 195 174 189 201 227 254 244 268 323 343 101 209 174 205 216 175 143 221 244 256 259 256 280 221 200 163 157 144 157 200 203 207 213 226 232 216
320 323 323 323 322 323 324 329 334 339 351 359 358 330 315 325 166 192 213 224 155 233 199 237 226 280 142 284 335 7 77 185 245 140 238 215 250 247 322 280 256 206 178 173 67 198 201 230 225 219 222 225 218 205
325 325 324 322 323 322 320 320 330 343 332 308 293 302 299 290 193 236 223 178 219 244 183 210 221 214 264 274 273 134 278 200 245 95 238 243 249 317 292 126 123 144 146 132 98 101 9 282 262 243 238 225 202 174
322 325 324 326 328 333 334 330 331 326 322 294 199 243 229 210 186 221 208 205 235 199 196 201 191 235 202 230 251 265 235 235 271 221 240 283 348 28 72 86 86 79 90 87 78 62 42 356 282 228 230 188 167 204
321 322 326 330 337 342 340 338 335 332 296 267 272 292 219 204 234 212 263 288 16 310 347 34 146 360 18 237 260 248 134 253 241 242 246 14 351 121 90 65 77 69 49 68 54 24 358 339 315 252 229 198 207 241
322 320 322 347 337 335 336 332 329 320 271 269 252 243 235 273 275 294 320 216 27 121 156 157 81 311 45 280 336 309 241 242 234 301 355 345 128 128 112 95 88 97 88 61 23 0 342 331 312 292 259 244 238 249
323 319 295 330 327 328 333 328 321 272 258 250 234 260 237 275 251 17 1 26 4 351 310 246 101 30 271 295 236 216 248 238 42 350 340 162 136 83 76 85 101 113 69 50 27 359 343 341 327 312 296 262 231 240
314 260 314 324 324 322 324 287 269 240 251 240 248 251 268 277 267 285 294 337 341 275 269 69 320 239 128 229 239 215 250 356 347 238 190 198 117 69 25 98 105 102 106 84 50 30 5 342 327 306 277 224 237 271
281 298 312 318 327 330 310 238 259 251 248 247 254 280 228 254 275 268 269 260 331 294 237 239 139 238 233 199 212 191 161 2 245 229 237 230 111 40 154 197 160 130 147 142 80 347 356 0 357 351 314 273 207 146
292 299 306 310 312 307 289 264 247 268 251 264 257 257 260 268 262 261 261 256 249 277 294 236 240 213 222 221 223 182 177 186 147 194 254 221 181 262 209 196 187 191 181 188 252 2 358 359 345 324 271 153 145 137
299 304 310 302 211 239 264 255 235 263 280 334 273 254 258 265 276 252 246 221 190 187 205 228 229 224 210 215 211 203 165 148 159 47 225 228 232 224 202 197 204 190 173 189 173 32 47 86 48 62 101 118 138 142
310 331 336 331 194 228 288 302 263 261 298 283 289 281 268 248 247 241 243 187 191 218 230 233 241 239 240 250 206 200 207 175 195 185 163 221 241 210 210 208 190 177 192 207 133 134 166 137 135 95 92 96 127 137
266 316 281 221 237 218 254 233 259 297 273 271 289 232 266 264 253 218 153 194 224 228 228 240 238 233 237 233 229 209 211 208 218 203 228 201 215 191 215 210 190 191 200 198 193 171 174 174 160 148 139 160 173 203
279 263 241 203 233 217 261 175 255 240 269 277 283 261 242 252 226 154 237 219 253 255 257 258 260 245 235 239 243 234 213 203 203 221 243 287 272 250 228 223 215 212 195 198 200 201 198 196 200 202 192 212 243 244
240 257 249 237 202 258 267 237 226 252 263 258 256 270 261 265 298 245 253 176 45 290 347 325 301 247 229 232 233 236 226 217 224 245 255 252 257 244 217 220 223 225 228 209 193 202 206 210 214 220 226 225 221 231
255 223 200 249 230 238 246 245 223 236 265 257 252 257 256 244 257 244 254 31 7 15 354 350 349 344 259 250 243 235 218 202 192 219 256 220 237 253 263 236 245 237 211 208 205 203 200 199 202 207 214 219 226 233
244 200 188 239 204 219 233 266 243 267 261 258 255 270 295 262 254 276 18 262 296 327 351 332 326 328 330 330 273 235 208 200 201 222 244 220 216 230 245 243 261 261 225 218 207 199 200 197 200 208 217 224 230 233
254 238 207 226 264 304 298 267 269 262 258 254 265 262 257 239 242 222 260 78 336 299 287 293 292 271 275 290 281 261 213 196 201 219 237 243 255 246 234 234 234 249 226 206 205 202 198 197 200 209 221 224 225 224
253 282 243 227 256 261 294 269 249 244 231 228 266 252 282 224 267 114 203 225 298 314 317 308 306 296 280 275 260 241 214 204 202 215 236 246 247 241 232 233 239 244 250 243 214 206 213 214 209 210 217 226 235 235
232 226 246 260 247 245 237 229 239 241 240 222 258 272 263 259 303 295 299 304 306 298 294 298 305 306 311 267 235 229 211 192 191 206 220 223 205 220 219 224 234 240 245 249 247 235 230 231 232 231 232 228 235 238
239 191 221 246 230 230 227 218 239 246 241 258 272 279 279 277 283 283 282 285 284 263 269 276 285 303 300 286 244 224 214 214 216 220 200 202 204 201 203 216 223 234 236 232 225 228 238 239 240 235 237 240 243 244
221 185 237 235 255 249 242 249 257 269 264 260 257 260 274 295 310 300 268 274 292 272 263 274 292 296 268 259 252 223 291 226 225 234 244 257 260 230 216 221 233 242 236 223 203 210 225 220 225 232 234 233 242 259
196 211 213 236 265 267 289 225 225 247 260 255 263 184 196 222 264 277 303 344 350 355 278 253 272 308 312 282 258 227 299 323 269 278 279 275 273 257 246 236 234 228 217 200 192 196 214 229 237 237 237 239 253 268
231 223 220 246 263 274 233 234 240 261 233 266 257 206 226 251 296 335 338 7 356 352 343 328 313 297 291 293 271 230 254 274 303 331 339 336 319 284 247 240 231 227 214 201 194 192 213 232 245 253 255 256 255 257